Chippewa Falls, WI

2:30 PM CDT on April 19, 2015 (GMT -0500)
Menomonie | | Change Station
CLOSE
Current Station
Airport
Location: Menomonie,
Elevation: 896 ft
Nearby Weather Stations

Elev 896 ft 44.89 °N, 91.87 °W | Updated 15 minutes ago

Overcast
Overcast
59 °F
Feels Like 59 °F
N
13
Wind Variable Wind from ESE

Today
High -- | Low -- °F
--% Chance of Precip.
Yesterday
High -- | Low -- °F
Precip. -- in
6:14 AM 7:55 PM
New Moon, 2% visible
Pressure 29.63 in
Visibility 10.0 miles
Clouds Mostly Cloudy 2600 ft
Overcast 6500 ft
Dew Point 45 °F
Humidity 58%
Rainfall 0.08 in
Snow Depth Not available.
UV 3 out of 12
Pollen 5.10 out of 12
Air Quality Not available.
Flu Activity Local Activity
METAR KLUM 191915Z AUTO 11011KT 10SM BKN026 OVC065 15/07 A2963 RMK AO2 T01520071

More Conditions Fewer Conditions

Pressure 29.63 in
Visibility 10.0 miles
Clouds Mostly Cloudy 2600 ft
Overcast 6500 ft
Dew Point 45 °F
Humidity 58%
Rainfall 0.08 in
Snow Depth Not available.
UV 3 out of 12
Pollen 5.10 out of 12
Air Quality Not available.
Flu Activity Local Activity
METAR KLUM 191915Z AUTO 11011KT 10SM BKN026 OVC065 15/07 A2963 RMK AO2 T01520071

More Conditions Fewer Conditions

10-Day Weather Forecast

Almanac

Astronomy

Apr. 19, 2015 Rise Set
Actual Time
Civil Twilight
Nautical Twilight
Astronomical Twilight
Moon
Length of Visible Light
Length of Day
Tomorrow will be .
, % of the Moon is Illuminated

Today's Extremes

State Highs State Lows

Community

WunderPhotos

Upload Photos

1,814,944 photos uploaded!

WunderBlogs® & News

Nearby

Air Quality

  Air Quality AQ Index Pollutant
Not available.

Snow Depth

Station Depth Elevation

Earthquake Activity

City Distance Mag. Time & Date
Minimum magnitude displayed is 2.5.

Coastal Water Temperatures

Place Temperature

Stations

Nearby Weather Stations

Station Location Temp. Windchill Dew Point Humidity Wind Precip. Elev Updated Type